"2009-10-28 00:00:00",1365406,15.52,50.81,3.954,0.647,6.323,100.9973,1.844,3.41,80.6,0,109.8,13.45,2.60,12.8
"2009-10-28 00:00:30",1365407,15.12,53.64,2.561,0.873,10.5,100.9883,1.821,3.374,81,0,109.8,13.45,2.58,15.6
"2009-10-28 00:01:00",1365408,15.15,49,4.317,0.811,10.38,100.9708,1.776,3.328,81.3,0,109.8,13.45,2.53,11.0
"2009-10-28 00:01:30",1365409,16.05,49.66,3.328,0.839,12.37,100.9559,1.738,3.253,81.6,0,109.8,13.46,2.50,11.7
"2009-10-28 00:02:00",1365410,15.88,51.01,2.77,0.908,11.43,100.9449,1.71,3.197,82.1,0,109.8,13.46,2.47,13.0
"2009-10-28 00:02:30",1365411,16.12,51.25,3.767,0.837,10.3,100.9283,1.668,3.168,82.5,0,109.8,13.46,2.43,13.2
"2009-10-28 00:03:00",1365412,16.57,53.24,3.233,0.874,10.16,100.9147,1.633,3.112,82.8,0,109.8,13.46,2.39,15.2
"2009-10-28 00:03:30",1365413,15.93,52.39,2.845,0.998,10.51,100.908,1.616,3.067,83.1,0,109.8,13.46,2.37,14.4
"2009-10-28 00:04:00",1365414,15.71,50.13,2.322,0.775,10.22,100.8853,1.558,3.022,83.5,0,109.8,13.47,2.32,12.1
"2009-10-28 00:04:30",1365415,16.18,52.72,3.852,0.774,10.32,100.882,1.55,2.997,83.9,0,109.8,13.47,2.31,14.7
"2009-10-28 00:05:00",1365416,15.09,49.24,3.91,0.963,10.22,100.8783,1.54,2.966,84.3,0,109.8,13.47,2.30,11.2
"2009-10-28 00:05:30",1365417,15.49,55.51,1.955,0.788,10.47,100.8571,1.486,2.923,84.6,0,109.8,13.47,2.24,17.5
"2009-10-28 00:06:00",1365418,15.44,55.91,2.884,0.772,10.57,100.8486,1.465,2.903,84.9,0,109.8,13.47,2.22,17.9
"2009-10-28 00:06:30",1365419,14.95,53.08,3.707,0.941,10.01,100.848,1.463,2.888,85.1,0,109.8,13.47,2.22,15.1
"2009-10-28 00:07:00",1365420,15.34,51.32,2.684,0.76,9.94,100.848,1.463,2.85,85.3,0,109.8,13.47,2.22,13.3
"2009-10-28 00:07:30",1365421,15.73,51.67,5.098,0.717,10.26,100.848,1.463,2.83,85.5,0,109.7,13.47,2.22,13.7
"2009-10-28 00:08:00",1365422,15.83,58.67,3.537,0.718,10.86,100.8415,1.447,2.818,85.6,0,109.7,13.47,2.20,20.7
"2009-10-28 00:08:30",1365423,15.34,55.55,3.719,0.771,11.71,100.8449,1.455,2.81,85.8,0,109.7,13.47,2.21,17.5
"2009-10-28 00:09:00",1365424,15.5,54.87,3.323,0.59,10.03,100.8486,1.465,2.796,86,0,109.7,13.47,2.22,16.9
"2009-10-28 00:09:30",1365425,15.38,54.36,2.565,0.814,10.24,100.8484,1.464,2.781,86.2,0,109.7,13.48,2.22,16.4
"2009-10-28 00:10:00",1365426,14.8,54.91,1.835,0.891,9.98,100.843,1.45,2.761,86.4,0,109.7,13.48,2.21,16.9
"2009-10-28 00:10:30",1365427,14.54,51.69,3.623,0.964,10.56,100.8272,1.41,2.768,86.4,0,109.7,13.48,2.17,13.7
"2009-10-28 00:11:00",1365428,14.59,51.01,3.214,0.878,11.11,100.8292,1.415,2.753,86.4,0,109.7,13.48,2.17,13.0
"2009-10-28 00:11:30",1365429,15.72,52.8,3.834,0.571,5.463,100.8326,1.424,2.741,86.5,0,109.7,13.48,2.18,14.8
"2009-10-28 00:12:00",1365430,15.97,55.87,1.746,0.826,5.965,100.8369,1.435,2.726,86.5,0,109.7,13.48,2.19,17.9
"2009-10-28 00:12:30",1365431,14.53,51.63,3.859,1.259,6.077,100.8197,1.391,2.714,86.6,0,109.7,13.48,2.15,13.6
"2009-10-28 00:13:00",1365432,14.74,51.34,4.153,1.022,-17.9,100.8073,1.359,2.688,86.6,0,109.7,13.49,2.12,13.3
"2009-10-28 00:13:30",1365433,14.79,50.25,4.481,0.643,-4.759,100.8101,1.366,2.683,86.8,0,109.7,13.49,2.12,12.2
"2009-10-28 00:14:00",1365434,15.64,54.55,3.77,0.87,-13.18,100.8093,1.364,2.666,86.9,0,109.7,13.48,2.12,16.5
"2009-10-28 00:14:30",1365435,14.38,50.61,4.545,1.414,-11.51,100.7898,1.315,2.638,87,0,109.7,13.47,2.07,12.6
"2009-10-28 00:15:00",1365436,14.45,48.99,2.67,0.868,-25.08,100.7804,1.291,2.625,87.1,0,109.7,13.47,2.05,11.0
"2009-10-28 00:15:30",1365437,14.85,49.13,2.87,0.841,-51.8,100.7804,1.291,2.608,87.2,0,109.7,13.47,2.05,11.1
"2009-10-28 00:16:00",1365438,13.29,45.85,3.737,1.097,3.635,100.7711,1.267,2.588,87.3,0,109.7,13.48,2.02,7.8
"2009-10-28 00:16:30",1365439,13.94,43.67,4.502,1.327,10.83,100.7468,1.205,2.583,87.4,0,109.7,13.48,1.96,5.7
"2009-10-28 00:17:00",1365440,13.02,41.74,3.267,1.135,10.03,100.7431,1.195,2.555,87.6,0,109.7,13.48,1.95,3.7
"2009-10-28 00:17:30",1365441,13.19,40.94,3.186,1.385,10.8,100.7129,1.118,2.524,87.8,0,109.7,13.48,1.87,2.9
"2009-10-28 00:18:00",1365442,13.38,41.2,3.242,1.055,10.49,100.6908,1.062,2.479,88,0,109.7,13.48,1.82,3.2
"2009-10-28 00:18:30",1365443,15.42,45.09,3.176,1.591,6.984,100.6659,0.999,2.463,88.2,0,109.7,13.48,1.75,7.1
"2009-10-28 00:19:00",1365444,15.62,47.53,2.646,1.164,9.29,100.6385,0.929,2.387,88.3,0,109.7,13.49,1.68,9.5
"2009-10-28 00:19:30",1365445,15.75,48.18,3.624,0.779,10.21,100.6088,0.853,2.341,88.4,0,109.7,13.49,1.61,10.2
"2009-10-28 00:20:00",1365446,16.4,50.06,3.386,0.799,1.297,100.5771,0.772,2.289,88.5,0,109.6,13.49,1.53,12.1
"2009-10-28 00:20:30",1365447,16.18,50.52,3.576,0.874,5.127,100.552,0.708,2.234,88.6,0,109.7,13.49,1.46,12.5
"2009-10-28 00:21:00",1365448,16,53.19,5.464,0.635,-18.5,100.5209,0.629,2.169,88.7,0,109.7,13.5,1.38,15.2
"2009-10-28 00:21:30",1365449,16.43,55.49,5.152,0.693,-31.48,100.4966,0.567,2.109,88.8,0,109.7,13.5,1.32,17.5
"2009-10-28 00:22:00",1365450,16.81,53.18,2.842,0.868,-6.778,100.4678,0.493,2.05,88.9,0,109.7,13.5,1.25,15.2
"2009-10-28 00:22:30",1365451,16.56,54.86,4.299,0.644,-9.76,100.4403,0.423,1.983,89.1,0,109.7,13.5,1.18,16.9
"2009-10-28 00:23:00",1365452,15.97,53.96,2.675,0.779,-42.59,100.4149,0.358,1.903,89.2,0,109.7,13.5,1.11,16.0
"2009-10-28 00:23:30",1365453,16.34,53.78,3.081,0.757,-25.08,100.3934,0.304,1.823,89.3,0,109.7,13.5,1.06,15.8
"2009-10-28 00:24:00",1365454,16.49,56.54,2.658,0.706,-18.95,100.3666,0.235,1.756,89.5,0,109.6,13.5,0.99,18.5
"2009-10-28 00:24:30",1365455,16.31,54.6,3.61,0.704,-7.471,100.3386,0.164,1.696,89.6,0,109.6,13.5,0.92,16.6
"2009-10-28 00:25:00",1365456,15.85,53.23,3.496,0.656,-47.09,100.3341,0.152,1.642,89.8,0,109.7,13.5,0.90,15.2
"2009-10-28 00:25:30",1365457,16.13,52.5,3.361,0.59,-27.18,100.3106,0.092,1.594,90,0,109.7,13.5,0.84,14.5
"2009-10-28 00:26:00",1365458,17.04,53.55,3.867,0.677,-1.415,100.301,0.068,1.549,90.2,0,109.6,13.5,0.82,15.5
"2009-10-28 00:26:30",1365459,17.02,54.99,2.491,0.859,-0.611,100.2727,-0.004,1.507,90.4,0,109.7,13.51,0.75,17.0
"2009-10-28 00:27:00",1365460,17.07,54.25,2.557,0.76,-11.36,100.269,-0.014,1.455,90.6,0,109.6,13.51,0.74,16.2
"2009-10-28 00:27:30",1365461,16.83,54.7,2.772,0.932,2.965,100.2495,-0.063,1.393,90.8,0,109.6,13.51,0.69,16.7
"2009-10-28 00:28:00",1365462,17.46,55.76,1.639,0.87,-10.56,100.2376,-0.094,1.375,91.1,0,109.6,13.51,0.66,17.8
"2009-10-28 00:28:30",1365463,17.71,54.68,3.14,0.797,-11.8,100.2359,-0.098,1.334,91.3,0,109.6,13.51,0.65,16.7
"2009-10-28 00:29:00",1365464,17.43,54.85,3.961,0.739,0.463,100.2071,-0.172,1.311,91.4,0,109.6,13.51,0.58,16.8
"2009-10-28 00:29:30",1365465,17.37,58.51,4.701,0.561,-10.58,100.2031,-0.182,1.279,91.6,0,109.6,13.52,0.57,20.5
"2009-10-28 00:30:00",1365466,17.5,58.11,2.788,1.345,-34.19,100.1813,-0.237,1.231,91.7,0,109.6,13.51,0.51,20.1
"2009-10-28 00:30:30",1365467,18.73,58.51,2.854,0.698,-36.52,100.1697,-0.267,1.186,91.9,0,109.6,13.51,0.48,20.5
"2009-10-28 00:31:00",1365468,18.35,57.15,2.799,0.818,-40.8,100.1694,-0.268,1.145,92.1,0,109.6,13.51,0.48,19.2
"2009-10-28 00:31:30",1365469,17.77,55.04,3.099,0.862,-46.86,100.1573,-0.299,1.122,92.2,0,109.6,13.51,0.45,17.0
"2009-10-28 00:32:00",1365470,17.85,55.68,2.744,0.777,-25.17,100.1386,-0.346,1.103,92.4,0,109.6,13.51,0.40,17.7
"2009-10-28 00:32:30",1365471,18.61,54.92,3.428,0.789,-36.31,100.1363,-0.352,1.083,92.5,0,109.6,13.51,0.40,16.9
"2009-10-28 00:33:00",1365472,17.4,53.35,2.635,0.85,-38.45,100.1335,-0.359,1.038,92.6,0,109.6,13.51,0.39,15.3
"2009-10-28 00:33:30",1365473,16.3,50.1,3.532,0.802,4.986,100.1148,-0.407,1.019,92.7,0,109.6,13.51,0.34,12.1
"2009-10-28 00:34:00",1365474,15.6,47.97,3.645,0.72,10.05,100.1075,-0.426,1.01,92.9,0,109.6,13.51,0.33,10.0
"2009-10-28 00:34:30",1365475,14.98,47.8,3.569,1.159,3.521,100.1106,-0.418,0.971,93,0,109.6,13.51,0.33,9.8
"2009-10-28 00:35:00",1365476,15.08,54.14,3.276,0.79,9.96,100.1137,-0.41,0.95,93.1,0,109.6,13.52,0.34,16.1
"2009-10-28 00:35:30",1365477,15.52,54.36,3.274,0.94,4.092,100.105,-0.432,0.926,93.2,0,109.6,13.52,0.32,16.4
"2009-10-28 00:36:00",1365478,16.15,55.28,1.868,0.811,10.51,100.0868,-0.478,0.922,93.3,0,109.5,13.52,0.27,17.3
"2009-10-28 00:36:30",1365479,15.63,52.47,2.813,0.871,9.47,100.0883,-0.475,0.907,93.4,0,109.6,13.52,0.28,14.5
"2009-10-28 00:37:00",1365480,14.69,52.65,4.304,0.718,7.415,100.0911,-0.467,0.89,93.5,0,109.6,13.52,0.28,14.7
"2009-10-28 00:37:30",1365481,14.62,52.61,4.222,0.772,4.961,100.0919,-0.465,0.86,93.6,0,109.6,13.53,0.29,14.6
"2009-10-28 00:38:00",1365482,15.53,52.42,4.597,0.713,8.5,100.0835,-0.487,0.858,93.6,0,109.5,13.53,0.26,14.4
"2009-10-28 00:38:30",1365483,15.61,56.31,3.518,0.731,8.34,100.073,-0.513,0.832,93.7,0,109.6,13.53,0.24,18.3
"2009-10-28 00:39:00",1365484,15.38,56.68,3.245,0.858,8.28,100.0685,-0.525,0.819,93.8,0,109.6,13.53,0.23,18.7
"2009-10-28 00:39:30",1365485,14.97,55.38,3.217,0.918,8.34,100.0704,-0.52,0.803,93.9,0,109.6,13.53,0.23,17.4
"2009-10-28 00:40:00",1365486,14.99,52.62,3.679,0.671,8.21,100.0696,-0.522,0.803,94,0,109.5,13.53,0.23,14.6
"2009-10-28 00:40:30",1365487,15.28,53.2,4.147,0.844,8.19,100.0682,-0.526,0.818,94.1,0,109.6,13.53,0.22,15.2
"2009-10-28 00:41:00",1365488,15.79,53.41,3.83,0.823,8.15,100.0682,-0.526,0.786,94.1,0,109.6,13.53,0.22,15.4
"2009-10-28 00:41:30",1365489,16.01,51.64,4.08,0.954,8.18,100.0679,-0.526,0.796,94.2,0,109.6,13.53,0.22,13.6
"2009-10-28 00:42:00",1365490,15.75,52.83,2.942,0.789,8.28,100.0679,-0.526,0.762,94.3,0,109.6,13.53,0.22,14.8
"2009-10-28 00:42:30",1365491,15.41,52.53,3.605,0.763,8.23,100.0679,-0.526,0.781,94.3,0,109.6,13.53,0.22,14.5
"2009-10-28 00:43:00",1365492,15.56,48.78,4.269,0.612,8.4,100.0679,-0.526,0.769,94.4,0,109.6,13.53,0.22,10.8
"2009-10-28 00:43:30",1365493,14.94,47.23,4.402,0.622,8.44,100.0676,-0.527,0.76,94.5,0,109.6,13.53,0.22,9.2
"2009-10-28 00:44:00",1365494,14.17,48.68,1.722,0.766,8.07,100.0628,-0.539,0.747,94.5,0,109.5,13.53,0.21,10.7
"2009-10-28 00:44:30",1365495,14.54,49.79,2.748,0.734,8.12,100.0439,-0.588,0.749,94.6,0,109.6,13.53,0.16,11.8
"2009-10-28 00:45:00",1365496,14.75,51.49,2.983,0.856,6.24,100.034,-0.613,0.726,94.6,0,109.6,13.53,0.14,13.5
"2009-10-28 00:45:30",1365497,14.95,50.56,3.035,0.86,8.51,100.034,-0.613,0.712,94.7,0,109.6,13.53,0.14,12.6
"2009-10-28 00:46:00",1365498,15.47,47.72,3.441,0.555,8.26,100.034,-0.613,0.715,94.7,0,109.6,13.54,0.14,9.7
"2009-10-28 00:46:30",1365499,15.19,47.98,3.49,0.727,8.44,100.0311,-0.62,0.707,94.8,0,109.6,13.53,0.13,10.0
"2009-10-28 00:47:00",1365500,15.23,47.26,3.679,0.779,8.24,100.0212,-0.645,0.684,94.8,0,109.6,13.53,0.10,9.3
"2009-10-28 00:47:30",1365501,13.44,45.43,5.139,1.79,8.91,100.0099,-0.674,0.691,94.8,0,109.6,13.53,0.08,7.4
"2009-10-28 00:48:00",1365502,14.76,47.83,3.42,0.966,8.23,100.0008,-0.697,0.67,94.9,0,109.6,13.53,0.05,9.8
"2009-10-28 00:48:30",1365503,15.15,47.7,3.274,0.626,4.11,100,-0.7,0.653,94.9,0,109.6,13.53,0.05,9.7
"2009-10-28 00:49:00",1365504,15.37,48.05,4.318,0.556,8.59,100.0014,-0.696,0.64,95,0,109.6,13.53,0.05,10.0
"2009-10-28 00:49:30",1365505,15.82,50.56,3.419,0.679,6.555,100.0017,-0.695,0.623,95,0,109.6,13.53,0.05,12.6
"2009-10-28 00:50:00",1365506,15.91,51.76,3.138,0.7,7.952,100.002,-0.695,0.621,95,0,109.5,13.53,0.06,13.8
"2009-10-28 00:50:30",1365507,16.01,50.68,3.957,0.576,5.778,100.0003,-0.699,0.618,95.1,0,109.6,13.53,0.05,12.7
"2009-10-28 00:51:00",1365508,16.11,52.09,4.127,0.605,7.956,99.98019,-0.75,0.616,95.1,0,109.6,13.53,-0.00,14.1
"2009-10-28 00:51:30",1365509,16.28,52.39,3.896,0.731,3.037,99.97482,-0.764,0.598,95.2,0,109.6,13.53,-0.01,14.4
"2009-10-28 00:52:00",1365510,16.07,53.57,3.226,0.557,-30.61,99.97736,-0.757,0.581,95.2,0,109.5,13.54,-0.01,15.6
"2009-10-28 00:52:30",1365511,15.84,51.55,3.83,0.571,7.975,99.98415,-0.74,0.6,95.3,0,109.6,13.55,0.01,13.5
"2009-10-28 00:53:00",1365512,16.04,49.18,2.748,0.782,7.483,99.98698,-0.733,0.571,95.3,0,109.5,13.55,0.02,11.2
"2009-10-28 00:53:30",1365513,16.32,48.52,3.341,0.633,7.61,99.98924,-0.727,0.563,95.3,0,109.5,13.55,0.02,10.5
"2009-10-28 00:54:00",1365514,16.67,48.56,3.224,0.622,7.765,99.99179,-0.721,0.572,95.4,0,109.5,13.55,0.03,10.6
"2009-10-28 00:54:30",1365515,16.7,48.61,3.571,0.842,7.825,99.99037,-0.724,0.554,95.4,0,109.6,13.55,0.03,10.6
"2009-10-28 00:55:00",1365516,17.6,48.03,3.755,0.582,7.976,99.99377,-0.715,0.547,95.4,0,109.5,13.55,0.03,10.0
"2009-10-28 00:55:30",1365517,17.54,48.31,3.399,0.681,7.784,99.99434,-0.714,0.527,95.5,0,109.6,13.55,0.04,10.3
"2009-10-28 00:56:00",1365518,17.45,49.85,3.27,0.529,7.871,99.99547,-0.711,0.547,95.5,0,109.5,13.55,0.04,11.8
"2009-10-28 00:56:30",1365519,17.67,49.88,3.399,0.692,7.747,99.99688,-0.708,0.552,95.6,0,109.6,13.55,0.04,11.9
"2009-10-28 00:57:00",1365520,17.82,49.16,3.34,0.773,8.32,99.99773,-0.705,0.533,95.6,0,109.6,13.55,0.04,11.2
"2009-10-28 00:57:30",1365521,18.06,50.41,3.927,0.523,8.2,99.99802,-0.705,0.556,95.7,0,109.6,13.55,0.04,12.4
"2009-10-28 00:58:00",1365522,18.38,52.75,2.537,0.631,8.09,99.99886,-0.702,0.557,95.7,0,109.5,13.55,0.05,14.8
"2009-10-28 00:58:30",1365523,18.17,50.56,3.105,0.908,8.18,100.0014,-0.696,0.584,95.8,0,109.5,13.55,0.05,12.6
"2009-10-28 00:59:00",1365524,18.27,50.95,4.363,0.441,8.26,100.0006,-0.698,0.572,95.8,0,109.5,13.55,0.05,13.0
"2009-10-28 00:59:30",1365525,18.57,50.56,3.872,0.573,8.58,100.0017,-0.695,0.581,95.8,0,109.5,13.55,0.05,12.6
"2009-10-28 01:00:00",1365526,17.75,49.32,3.423,0.919,8.29,100.0011,-0.697,0.587,95.9,0,109.5,13.55,0.05,11.3
"2009-10-28 01:00:30",1365527,17.27,48.8,3.801,1.175,8.18,100,-0.7,0.572,95.9,0,109.5,13.55,0.05,10.8
"2009-10-28 01:01:00",1365528,18.72,49.03,3.953,0.611,8.49,100,-0.7,0.569,95.9,0,109.5,13.55,0.05,11.0
"2009-10-28 01:01:30",1365529,18.73,47.89,3.959,0.613,8.54,100,-0.7,0.572,96,0,109.5,13.55,0.05,9.9
"2009-10-28 01:02:00",1365530,18.27,47.06,4.006,0.649,8.6,100,-0.7,0.56,96,0,109.5,13.55,0.05,9.1
"2009-10-28 01:02:30",1365531,17.39,47.15,4.714,0.862,8.79,100,-0.7,0.581,96,0,109.5,13.56,0.05,9.2
"2009-10-28 01:03:00",1365532,17.29,47.69,4.215,0.743,8.62,100,-0.7,0.564,96.1,0,109.5,13.55,0.05,9.7
"2009-10-28 01:03:30",1365533,17.73,48.15,4.38,0.713,8.47,100,-0.7,0.565,96.1,0,109.5,13.55,0.05,10.2
"2009-10-28 01:04:00",1365534,17.7,47.96,3.476,0.76,8.31,100,-0.7,0.557,96.1,0,109.5,13.55,0.05,10.0
"2009-10-28 01:04:30",1365535,17.9,48.51,3.587,0.716,8.39,100,-0.7,0.578,96.1,0,109.5,13.55,0.05,10.5
"2009-10-28 01:05:00",1365536,17.01,46.84,4.065,0.712,8.42,100,-0.7,0.554,96.2,0,109.5,13.55,0.05,8.8
"2009-10-28 01:05:30",1365537,16.64,46.57,5.119,1.172,8.58,99.99972,-0.7,0.552,96.2,0,109.5,13.55,0.05,8.6
"2009-10-28 01:06:00",1365538,16.59,46.74,4.468,1.075,8.55,99.99886,-0.702,0.548,96.2,0,109.5,13.55,0.05,8.7
"2009-10-28 01:06:30",1365539,16.58,45.96,4.655,0.977,8.6,99.99632,-0.709,0.549,96.2,0,109.6,13.55,0.04,8.0
"2009-10-28 01:07:00",1365540,16.33,45.67,4.486,1.116,8.43,99.99405,-0.715,0.547,96.2,0,109.6,13.55,0.03,7.7
"2009-10-28 01:07:30",1365541,15.6,44.03,4.267,1.04,8.59,99.99037,-0.724,0.539,96.2,0,109.5,13.55,0.03,6.0
"2009-10-28 01:08:00",1365542,16.61,47.41,3.335,0.728,8.48,99.98641,-0.734,0.546,96.3,0,109.5,13.55,0.02,9.4
"2009-10-28 01:08:30",1365543,14.7,43.56,5.165,1.623,8.19,99.98471,-0.739,0.529,96.3,0,109.5,13.56,0.01,5.6
"2009-10-28 01:09:00",1365544,14.82,45.12,4.302,1.951,7.947,99.98189,-0.746,0.522,96.3,0,109.5,13.56,0.00,7.1
"2009-10-28 01:09:30",1365545,13.04,43.89,5.066,2.153,7.867,99.96971,-0.777,0.52,96.3,0,109.5,13.56,-0.03,5.9
"2009-10-28 01:10:00",1365546,15.51,44.62,3.244,1.058,8.03,99.96603,-0.786,0.518,96.4,0,109.5,13.56,-0.04,6.6
"2009-10-28 01:10:30",1365547,15.31,43.98,4.168,1.17,8.13,99.96603,-0.786,0.532,96.4,0,109.5,13.56,-0.04,6.0
"2009-10-28 01:11:00",1365548,14.05,42.63,4.236,1.263,8.38,99.96603,-0.786,0.509,96.4,0,109.5,13.56,-0.04,4.6
"2009-10-28 01:11:30",1365549,14.8,42.9,4.349,1.671,8.65,99.96603,-0.786,0.504,96.4,0,109.5,13.56,-0.04,4.9
"2009-10-28 01:12:00",1365550,13.99,42.01,4.032,1.121,8.45,99.96603,-0.786,0.499,96.4,0,109.5,13.56,-0.04,4.0
"2009-10-28 01:12:30",1365551,13.16,40.11,4.994,0.94,8.56,99.96659,-0.785,0.535,96.5,0,109.5,13.56,-0.04,2.1
"2009-10-28 01:13:00",1365552,13.5,40.88,4.235,0.725,8.45,99.97764,-0.757,0.521,96.5,0,109.5,13.56,-0.01,2.9
"2009-10-28 01:13:30",1365553,14.22,41.63,4.107,0.965,8.39,99.98471,-0.739,0.517,96.5,0,109.5,13.56,0.01,3.6
"2009-10-28 01:14:00",1365554,13.44,40.69,4.214,0.939,8.4,99.99547,-0.711,0.532,96.5,0,109.5,13.56,0.04,2.7
"2009-10-28 01:14:30",1365555,13.21,40.46,4.178,0.594,8.44,100.0003,-0.699,0.555,96.6,0,109.5,13.56,0.05,2.5
"2009-10-28 01:15:00",1365556,13.09,39.09,4.259,0.688,8.35,100.0017,-0.695,0.563,96.6,0,109.5,13.56,0.05,1.1
"2009-10-28 01:15:30",1365557,13.32,39.38,3.9,0.779,8.2,100.0017,-0.695,0.547,96.6,0,109.5,13.56,0.05,1.4
"2009-10-28 01:16:00",1365558,12.48,38.08,4.047,0.44,8.22,100.0023,-0.694,0.572,96.6,0,109.5,13.56,0.06,0.1
"2009-10-28 01:16:30",1365559,12.54,36.88,4.26,0.852,8.13,100.0014,-0.696,0.59,96.6,0,109.5,13.57,0.05,358.9
"2009-10-28 01:17:00",1365560,12.56,37.32,3.743,0.723,8.06,100.004,-0.689,0.574,96.7,0,109.5,13.57,0.06,359.3
"2009-10-28 01:17:30",1365561,12.47,38.26,3.348,0.513,8.12,100.0065,-0.683,0.567,96.7,0,109.5,13.57,0.07,0.3
"2009-10-28 01:18:00",1365562,13.02,39,4.087,0.727,8.06,100.0065,-0.683,0.591,96.7,0,109.5,13.57,0.07,1.0
"2009-10-28 01:18:30",1365563,12.5,39.01,3.718,0.654,8.14,100.0071,-0.682,0.584,96.7,0,109.5,13.57,0.07,1.0
"2009-10-28 01:19:00",1365564,12.36,38.18,4.221,0.813,7.873,100.0079,-0.679,0.595,96.7,0,109.5,13.56,0.07,0.2
"2009-10-28 01:19:30",1365565,12.39,38.77,4.348,0.808,8.29,100.0085,-0.678,0.594,96.7,0,109.5,13.56,0.07,0.8
"2009-10-28 01:20:00",1365566,12.82,39.55,3.591,0.668,8.26,100.0085,-0.678,0.594,96.7,0,109.5,13.56,0.07,1.5
"2009-10-28 01:20:30",1365567,12.5,38.01,4.076,0.951,7.924,100.0088,-0.677,0.593,96.7,0,109.5,13.56,0.07,0.0
"2009-10-28 01:21:00",1365568,12.97,38.37,4.443,0.872,7.963,100.0105,-0.673,0.62,96.8,0,109.5,13.56,0.08,0.4
"2009-10-28 01:21:30",1365569,12.81,38.13,4.135,1.115,7.939,100.0122,-0.669,0.592,96.8,0,109.5,13.56,0.08,0.1
"2009-10-28 01:22:00",1365570,12.64,38.09,3.809,0.713,8.05,100.0133,-0.666,0.586,96.8,0,109.5,13.56,0.08,0.1
"2009-10-28 01:22:30",1365571,12.9,40.21,3.909,0.586,8.4,100.0139,-0.664,0.61,96.8,0,109.5,13.56,0.09,2.2
"2009-10-28 01:23:00",1365572,12.39,38.83,3.742,0.764,8.23,100.0153,-0.661,0.609,96.8,0,109.5,13.56,0.09,0.8
"2009-10-28 01:23:30",1365573,13.29,38.65,4.639,1.121,8.13,100.0192,-0.651,0.618,96.8,0,109.5,13.56,0.10,0.7
"2009-10-28 01:24:00",1365574,12.56,37,3.92,0.785,8.16,100.0227,-0.642,0.618,96.8,0,109.5,13.56,0.11,359.0
"2009-10-28 01:24:30",1365575,12.4,36.89,3.868,0.949,8.1,100.0215,-0.645,0.644,96.9,0,109.5,13.56,0.10,358.9
"2009-10-28 01:25:00",1365576,12.04,35.37,4.441,0.89,8.01,100.0218,-0.644,0.608,96.9,0,109.5,13.57,0.11,357.4
"2009-10-28 01:25:30",1365577,12.77,37.24,3.86,1.184,8.03,100.0204,-0.648,0.62,96.9,0,109.5,13.57,0.10,359.2
"2009-10-28 01:26:00",1365578,12.43,37.77,3.968,0.583,7.984,100.0204,-0.648,0.626,96.9,0,109.5,13.58,0.10,359.8
"2009-10-28 01:26:30",1365579,12.04,36.61,4.217,0.901,8.09,100.0218,-0.644,0.636,96.9,0,109.5,13.58,0.11,358.6
"2009-10-28 01:27:00",1365580,12.05,37.89,4.885,0.832,8.18,100.0235,-0.64,0.642,96.9,0,109.5,13.58,0.11,359.9
"2009-10-28 01:27:30",1365581,12.03,34.63,4.442,1.03,7.871,100.0235,-0.64,0.626,96.9,0,109.5,13.58,0.11,356.6
"2009-10-28 01:28:00",1365582,11.89,38.54,3.509,1.073,8.11,100.0255,-0.635,0.632,96.9,0,109.5,13.58,0.12,0.5
"2009-10-28 01:28:30",1365583,11.81,37.69,4.088,0.752,8.15,100.0212,-0.645,0.596,96.9,0,109.5,13.58,0.10,359.7
"2009-10-28 01:29:00",1365584,11.27,35.16,4.567,0.853,7.77,100.0187,-0.652,0.615,96.9,0,109.5,13.58,0.10,357.2
"2009-10-28 01:29:30",1365585,10.68,38.73,4.485,1.208,-6.276,100.0139,-0.664,0.606,96.9,0,109.5,13.58,0.09,0.7
"2009-10-28 01:30:00",1365586,10.3,38.49,3.518,1.132,7.723,100.0136,-0.665,0.584,96.9,0,109.5,13.58,0.08,0.5
"2009-10-28 01:30:30",1365587,11.27,35.7,4.361,1.061,7.816,100.0136,-0.665,0.593,96.9,0,109.5,13.58,0.08,357.7
"2009-10-28 01:31:00",1365588,10.95,35.35,4.387,0.756,8.36,100.011,-0.671,0.624,96.9,0,109.5,13.58,0.08,357.4
"2009-10-28 01:31:30",1365589,10.75,40.14,5.323,1.312,5.521,100.0088,-0.677,0.597,96.9,0,109.5,13.58,0.07,2.1
"2009-10-28 01:32:00",1365590,11.12,39.47,3.994,1.033,7.522,100.0091,-0.676,0.601,96.9,0,109.5,13.58,0.07,1.5
"2009-10-28 01:32:30",1365591,11.27,38.69,4.372,1.078,-3.34,100.0074,-0.681,0.609,96.9,0,109.5,13.58,0.07,0.7
"2009-10-28 01:33:00",1365592,11.19,37.34,3.88,0.742,-44.68,100.0059,-0.684,0.602,97,0,109.5,13.58,0.07,359.3
"2009-10-28 01:33:30",1365593,11.45,38.1,5.029,0.769,-27.74,100.0054,-0.686,0.555,97,0,109.5,13.58,0.06,0.1
"2009-10-28 01:34:00",1365594,11.11,37.79,4.325,0.882,-15.44,100.0079,-0.679,0.574,97,0,109.5,13.58,0.07,359.8
"2009-10-28 01:34:30",1365595,10.47,38.18,5.28,0.708,9.45,100.0085,-0.678,0.612,97,0,109.5,13.58,0.07,0.2
"2009-10-28 01:35:00",1365596,12.03,40.25,4.752,1.219,-1.234,100.0045,-0.688,0.596,97,0,109.5,13.58,0.06,2.2
"2009-10-28 01:35:30",1365597,11.33,36.11,5.071,1.212,-15.84,99.99519,-0.712,0.592,97,0,109.5,13.58,0.04,358.1
"2009-10-28 01:36:00",1365598,11.89,33.26,5.982,1.488,-26.89,99.99377,-0.715,0.58,97,0,109.5,13.57,0.03,355.3
"2009-10-28 01:36:30",1365599,12.39,32.51,7.616,1.589,-52.12,99.99575,-0.71,0.584,97,0,109.5,13.57,0.04,354.5
"2009-10-28 01:37:00",1365600,10.76,40.38,5.14,0.885,-49.97,99.99547,-0.711,0.566,97,0,109.5,13.57,0.04,2.4
"2009-10-28 01:37:30",1365601,12.04,37.64,4.222,0.604,-49.9,99.9983,-0.704,0.56,97,0,109.5,13.57,0.05,359.6
"2009-10-28 01:38:00",1365602,10.6,41.69,4.705,1.189,-39.41,99.99519,-0.712,0.551,97,0,109.5,13.57,0.04,3.7
"2009-10-28 01:38:30",1365603,9.92,41.26,3.996,0.928,-45.47,99.9864,-0.734,0.553,97,0,109.5,13.57,0.02,3.3
"2009-10-28 01:39:00",1365604,10.41,40.68,4.594,1.356,-37.12,99.97933,-0.752,0.548,97,0,109.5,13.57,-0.00,2.7
"2009-10-28 01:39:30",1365605,11.12,42.23,4.102,1.242,-16.05,99.97904,-0.753,0.543,97,0,109.5,13.57,-0.00,4.2
"2009-10-28 01:40:00",1365606,11.38,41.37,3.676,1.029,-40.91,99.98159,-0.747,0.519,97,0,109.5,13.57,0.00,3.4
"2009-10-28 01:40:30",1365607,12.28,42.04,3.957,1.426,-45.69,99.97876,-0.754,0.514,97,0,109.5,13.57,-0.00,4.0
"2009-10-28 01:41:00",1365608,11.88,38.36,4.613,0.615,-37.43,99.96856,-0.78,0.528,97,0,109.5,13.57,-0.03,0.4
"2009-10-28 01:41:30",1365609,11.72,40.08,4.767,1.259,3.106,99.96573,-0.787,0.52,97,0,109.5,13.58,-0.04,2.1
"2009-10-28 01:42:00",1365610,11.77,41.61,5.382,1.423,-1.334,99.96545,-0.788,0.512,97.1,0,109.5,13.58,-0.04,3.6
"2009-10-28 01:42:30",1365611,11.59,46.55,6.415,1.092,4.994,99.96545,-0.788,0.496,97.1,0,109.5,13.58,-0.04,8.5
"2009-10-28 01:43:00",1365612,11.71,41.82,5.113,1.31,-11.34,99.9612,-0.798,0.483,97,0,109.5,13.58,-0.05,3.8
"2009-10-28 01:43:30",1365613,11.88,41.46,4.497,0.991,-14.24,99.94761,-0.833,0.466,97.1,0,109.5,13.58,-0.08,3.5
"2009-10-28 01:44:00",1365614,12.42,41.84,4.363,1.39,1.239,99.93968,-0.853,0.462,97,0,109.4,13.58,-0.10,3.8
"2009-10-28 01:44:30",1365615,12.28,41.19,4.343,0.763,6.399,99.93487,-0.866,0.461,97.1,0,109.5,13.58,-0.12,3.2
"2009-10-28 01:45:00",1365616,12.08,40.14,4.36,0.644,-0.656,99.93204,-0.873,0.43,97.1,0,109.5,13.58,-0.12,2.1
"2009-10-28 01:45:30",1365617,12.51,42.33,4.602,0.99,-8.96,99.93204,-0.873,0.436,97.1,0,109.5,13.58,-0.12,4.3
"2009-10-28 01:46:00",1365618,13.94,45.52,5.061,1.189,5.357,99.93204,-0.873,0.418,97.1,0,109.5,13.58,-0.12,7.5
"2009-10-28 01:46:30",1365619,13.05,43.83,4.488,1.204,8.57,99.93204,-0.873,0.422,97.1,0,109.5,13.59,-0.12,5.8
"2009-10-28 01:47:00",1365620,13.46,43.61,4.16,1.228,9.14,99.93176,-0.874,0.413,97.1,0,109.5,13.59,-0.12,5.6
"2009-10-28 01:47:30",1365621,12.68,42.38,4.433,0.993,-3.311,99.93204,-0.873,0.41,97.1,0,109.5,13.58,-0.12,4.4
"2009-10-28 01:48:00",1365622,12.64,43.74,3.583,1.158,5.69,99.93204,-0.873,0.385,97.1,0,109.5,13.59,-0.12,5.7
"2009-10-28 01:48:30",1365623,12,41.7,4.569,0.982,10.55,99.92695,-0.886,0.377,97.1,0,109.5,13.59,-0.14,3.7
"2009-10-28 01:49:00",1365624,13.13,42.55,5.465,1.52,8.87,99.91024,-0.928,0.382,97.1,0,109.5,13.59,-0.18,4.5
"2009-10-28 01:49:30",1365625,12.19,42.22,5.078,1.736,11.02,99.90457,-0.943,0.371,97.1,0,109.5,13.59,-0.19,4.2